[[{"header":{"parameterUnit":"m.s-1","parameterCategory":1,"la1":30.2992,"la2":30.254,"lo1":-89.0895,"lo2":-89.0443,"dy":0.0025,"dx":0.0025,"nx":19,"ny":19,"refTime":"2026-04-04T21:00:00:Z","depth":0,"parameterNumber":2,"parameterNumberName":"U-component_of_WINDS"},"data":[0,0,0,-3.3768,-3.3769,-3.3824,-3.3824,-3.3902,-3.3902,0,0,0,0,0,0,0,0,0,0,0,-3.3756,-3.3757,-3.3768,-3.3769,-3.3824,-3.3824,-3.3902,-3.3902,0,0,0,0,0,0,0,0,0,0,0,-3.3756,-3.3757,-3.3758,-3.377,-3.3824,-3.3824,-3.3901,-3.3857,0,0,0,0,0,0,0,0,0,0,-3.3803,-3.3797,-3.3757,-3.3758,-3.377,-3.3824,-3.3824,-3.3855,-3.386,-3.3881,0,-3.39,0,-3.3902,-3.3908,-3.3909,0,0,0,-3.3766,-3.3793,-3.3803,-3.3758,-3.3771,-3.3824,-3.3798,-3.3858,-3.3864,-3.3887,-3.3901,-3.3903,-3.3904,-3.3909,-3.3909,-3.4038,-3.4039,0,0,-3.3763,-3.3769,-3.38,-3.3807,-3.3799,-3.3797,-3.38,-3.3861,-3.3876,-3.3901,-3.3905,-3.3905,-3.3909,-3.391,-3.4037,-3.4038,0,0,0,-3.3757,-3.3767,-3.3776,-3.3804,-3.3814,-3.3798,-3.3802,-3.3873,-3.3876,-3.3906,-3.3906,-3.391,-3.3911,-3.4037,-3.4038,-3.408,0,0,0,-3.3755,-3.3763,-3.3774,-3.3779,-3.3813,-3.3844,-3.3813,-3.3872,-3.3878,-3.3906,-3.391,-3.3912,-3.4036,-3.4037,-3.4077,-3.4098,0,0,0,-3.3751,-3.3762,-3.3772,-3.3779,-3.3802,-3.3843,-3.3849,-3.3873,-3.3879,-3.3909,-3.3912,-3.4035,-3.4037,-3.4074,-3.4094,-3.4133,0,0,0,-3.3749,-3.3809,-3.3773,-3.384,-3.3802,-3.387,-3.3848,-3.3898,-3.3929,-3.391,-3.4036,-3.4038,-3.4074,-3.4091,-3.413,-3.4165,-3.4181,0,0,-3.3827,-3.3818,-3.3857,-3.3827,-3.3902,-3.3861,-3.3943,-3.3965,-3.3963,-3.4013,-3.4017,-3.4078,-3.4094,-3.4132,-3.4271,-3.4284,0,0,0,-3.3884,-3.3912,-3.3931,-3.396,-3.398,-3.3999,-3.4009,-3.4018,-3.406,-3.399,-3.4104,-3.4113,-3.4135,-3.4152,-3.4162,-3.4181,-3.4046,-3.4046,-3.4046,-3.4,-3.3996,-3.406,-3.4062,-3.4091,-3.4102,-3.4126,-3.4139,-3.4125,-3.4153,-3.4166,-3.4251,-3.4271,-3.4279,-3.4298,-3.4187,-3.4187,-3.4187,-3.4187,-3.4113,-3.4151,-3.4133,-3.4188,-3.4183,-3.4229,-3.4244,-3.4232,-3.4275,-3.424,-3.426,-3.4219,-3.4293,-3.4309,-3.419,-3.419,-3.4189,-3.4189,-3.4189,-3.4186,-3.4203,-3.4214,-3.4258,-3.4293,-3.4294,-3.4336,-3.433,-3.4325,-3.4345,-3.4358,-3.4358,-3.4355,-3.4353,-3.4353,-3.4353,-3.4353,-3.4354,-3.4354,-3.4257,-3.4268,-3.4304,-3.4332,-3.4351,-3.4375,-3.4389,-3.4408,-3.4427,-3.442,-3.442,-3.4403,-3.4302,-3.4275,-3.4358,-3.4357,-3.4357,-3.4356,-3.4356,-3.4368,-3.4343,-3.4398,-3.4417,-3.445,-3.4485,-3.4479,-3.4518,-3.4533,-3.4554,-3.4535,-3.4461,-3.4451,-3.4443,-3.442,-3.4536,-3.4536,-3.4536,-3.4536,-3.4428,-3.4424,-3.4479,-3.4511,-3.4541,-3.4542,-3.4605,-3.4618,-3.4627,-3.4636,-3.4619,-3.459,-3.4582,-3.4577,-3.4565,-3.4544,-3.4689,-3.4689,-3.4689,-3.4495,-3.4494,-3.4548,-3.4557,-3.4583,-3.4605,-3.4665,-3.4702,-3.4707,-3.4695,-3.4643,-3.4636,-3.459,-3.4575,-3.4558,-3.4541,-3.4502,0,0]},{"header":{"parameterUnit":"m.s-1","parameterCategory":1,"la1":30.2992,"la2":30.254,"lo1":-89.0895,"lo2":-89.0443,"dy":0.0025,"dx":0.0025,"nx":19,"ny":19,"refTime":"2026-04-04T21:00:00:Z","depth":0,"parameterNumber":3,"parameterNumberName":"V-component_of_WINDS"},"data":[0,0,0,4.402,4.4022,4.4092,4.4092,4.4185,4.4186,0,0,0,0,0,0,0,0,0,0,0,4.4003,4.4004,4.402,4.4022,4.4092,4.4092,4.4185,4.4186,0,0,0,0,0,0,0,0,0,0,0,4.4002,4.4003,4.4004,4.4022,4.4091,4.4092,4.4185,4.413,0,0,0,0,0,0,0,0,0,0,4.4062,4.4049,4.4003,4.4004,4.4023,4.4091,4.4092,4.4128,4.4134,4.4156,0,4.4177,0,4.4183,4.4193,4.4193,0,0,0,4.4019,4.4044,4.406,4.4005,4.4023,4.4091,4.4059,4.4131,4.4138,4.4164,4.4178,4.4182,4.4185,4.4193,4.4194,4.4336,4.4336,0,0,4.4015,4.4017,4.4056,4.4065,4.4056,4.4057,4.4061,4.4135,4.415,4.4179,4.4184,4.4187,4.4194,4.4195,4.4335,4.4336,0,0,0,4.4006,4.4014,4.4028,4.4061,4.4074,4.4059,4.4064,4.4147,4.4152,4.4185,4.4188,4.4195,4.4196,4.4334,4.4335,4.4378,0,0,0,4.4004,4.4009,4.4027,4.4028,4.4073,4.4111,4.4075,4.4147,4.4155,4.4187,4.4195,4.4197,4.4333,4.4335,4.4375,4.4398,0,0,0,4.3997,4.4008,4.4019,4.4028,4.4059,4.411,4.4119,4.4148,4.4157,4.4193,4.4197,4.4332,4.4334,4.4372,4.4393,4.4438,0,0,0,4.399,4.4054,4.402,4.4093,4.4058,4.4137,4.4118,4.4176,4.4213,4.4195,4.4333,4.4335,4.4372,4.4391,4.4435,4.4476,4.4493,0,0,4.4072,4.4064,4.4107,4.4079,4.4164,4.4126,4.4218,4.4248,4.4248,4.4306,4.431,4.4376,4.4393,4.4437,4.4587,4.46,0,0,0,4.4133,4.4165,4.4187,4.4223,4.425,4.4275,4.4291,4.4303,4.4353,4.4279,4.4403,4.4413,4.4439,4.4459,4.447,4.4493,4.4344,4.4344,4.4343,4.425,4.4251,4.4323,4.4333,4.4368,4.4387,4.4415,4.4434,4.4421,4.4451,4.4468,4.456,4.4583,4.4591,4.4615,4.4489,4.449,4.449,4.449,4.4371,4.4416,4.4402,4.4467,4.4467,4.4521,4.4542,4.4532,4.4583,4.4546,4.4568,4.4528,4.4606,4.4627,4.4493,4.4493,4.4492,4.4492,4.4492,4.4448,4.447,4.4486,4.4541,4.4583,4.459,4.4641,4.4638,4.4635,4.4658,4.4677,4.4677,4.4677,4.4667,4.4668,4.4668,4.4668,4.4669,4.4669,4.4522,4.4539,4.4583,4.462,4.4644,4.4677,4.4699,4.4722,4.4748,4.4742,4.4742,4.4728,4.4614,4.4586,4.4674,4.4673,4.4672,4.4672,4.4671,4.4646,4.4619,4.4686,4.4712,4.4757,4.48,4.4798,4.4848,4.4867,4.4892,4.4874,4.479,4.4781,4.4772,4.4748,4.4873,4.4873,4.4873,4.4873,4.4712,4.4708,4.4779,4.482,4.486,4.4866,4.4944,4.4962,4.4977,4.4989,4.4971,4.4939,4.493,4.4927,4.4914,4.4893,4.5051,4.5051,4.5052,4.4789,4.479,4.4856,4.4873,4.4908,4.4939,4.5013,4.5061,4.5071,4.5059,4.4999,4.4992,4.4941,4.4925,4.491,4.4891,4.4851,0,0]}]]